Flag for China Weather past 2 weeks in Tianjin, Tianjin Municipality, China

66 °F


Feels Like: 66 °F
Forecast: 53 / 65 °F
Wind: 17 mph from North

Location: Tianjin / Zhangguizhu

Current Time: Oct 8, 2015 at 1:57:14 AM

Latest Report: Oct 8, 2015 at 1:00 AM

Visibility: 10 mi

Pressure: 30.01 "Hg

Humidity: 32%

Dew point: 36 °F

Location of TianjinLocation

Historic Weather in Tianjin — Graph


Tianjin temperature yesterday

Maximum temperature yesterday: 79 °F (at 1:30 PM)
Minimum temperature yesterday: 64 °F (at 12:30 AM)
Average temperature yesterday: 71 °F

Past Weeks' High & Low Weather Summary

High82 °F (Sep 27, 1:30 PM)94% (Sep 23, 6:30 AM)30.42 "Hg (Sep 23, 6:30 AM)
Low54 °F (Oct 3, 6:30 AM)18% (Sep 25, 2:30 PM)29.74 "Hg (Sep 24, 3:30 PM)
Average67 °F65%30.00 "Hg
* Reported Midnight between Sep 22 and Sep 23 — Oct 8 12:30 AM, Tianjin, Weather by CustomWeather, © 2015

Note: Actual official high and low records may vary slightly from our data, if they occured in-between our weather recording intervals... More about our weather records


Tianjin weather history for previous 24 hours

Time TempWeatherWind HumidityBarometerVisibility
12:30 AM
Thu, Oct 8
66 °FHaze.20 mph37%30.01 "Hg3 mi
12:00 AM70 °FHaze.17 mph38%30.01 "Hg2 mi
11:30 PM
Wed, Oct 7
70 °FHaze.10 mph46%29.98 "Hg2 mi
11:00 PM70 °FClear.8 mph60%29.98 "Hg4 mi
10:30 PM70 °FClear.8 mph64%29.98 "Hg4 mi
10:00 PM70 °FHaze.6 mph64%29.98 "Hg3 mi
9:30 PM72 °FHaze.6 mph61%29.98 "Hg3 mi
9:00 PM72 °FHaze.8 mph57%29.98 "Hg3 mi
8:30 PM72 °FClear.6 mph57%29.98 "Hg4 mi
8:00 PM72 °FClear.3 mph53%29.95 "Hg4 mi
7:30 PM73 °FClear.3 mph50%29.95 "Hg5 mi
7:00 PM73 °FClear.6 mph50%29.92 "Hg5 mi
6:30 PM73 °FClear.3 mph50%29.92 "Hg10 mi
6:00 PM73 °FClear.3 mph50%29.92 "Hg10 mi
5:30 PM75 °FSunny.6 mph47%29.92 "Hg10 mi
5:00 PM77 °FPassing clouds.6 mph44%29.92 "HgN/A
4:30 PM77 °FPassing clouds.8 mph44%29.92 "HgN/A
4:00 PM79 °FSunny.8 mph42%29.92 "Hg10 mi
3:30 PM79 °FSunny.10 mph39%29.89 "Hg10 mi
3:00 PM79 °FClear.8 mph39%29.89 "Hg6 mi
2:30 PM79 °FClear.8 mph42%29.92 "Hg5 mi
2:00 PM79 °FClear.10 mph42%29.92 "Hg5 mi
1:30 PM79 °FClear.8 mph42%29.92 "Hg4 mi
1:00 PM77 °FClear.8 mph44%29.95 "Hg4 mi
12:30 PM77 °FClear.6 mph44%29.95 "Hg4 mi
12:00 PM75 °FClear.10 mph47%29.95 "Hg4 mi
11:30 AM75 °FClear.6 mph47%29.98 "Hg4 mi
11:00 AM73 °FHaze.8 mph53%29.98 "Hg2 mi
10:30 AM72 °FHaze.6 mph61%29.98 "Hg2 mi
10:00 AM72 °FHaze.6 mph61%29.98 "Hg2 mi
9:30 AM72 °FHaze.6 mph61%29.98 "Hg1 mi
9:00 AM70 °FHaze.6 mph69%30.01 "Hg1 mi
8:30 AM68 °FFog.6 mph73%29.98 "Hg1 mi
8:00 AM68 °FFog.3 mph73%29.98 "Hg1 mi
7:30 AM66 °FFog.3 mph83%29.98 "Hg1 mi
7:00 AM66 °FFog.3 mph78%29.98 "Hg1 mi
6:30 AM66 °FFog.3 mph78%29.95 "Hg1 mi
6:00 AM66 °FFog.3 mph78%29.95 "Hg1 mi
5:30 AM66 °FFog.3 mph78%29.95 "Hg1 mi
5:00 AM68 °FFog.1 mph73%29.95 "Hg1 mi
4:30 AM66 °FFog.3 mph78%29.95 "Hg1 mi
4:00 AM66 °FFog.1 mph78%29.95 "Hg1 mi
3:30 AM64 °FFog.1 mph88%29.95 "Hg1 mi
3:00 AM64 °FFog.1 mph83%29.95 "Hg1 mi
2:30 AM66 °FFog.3 mph78%29.98 "Hg1 mi
2:00 AM64 °FFog.1 mph83%29.98 "Hg1 mi
1:30 AM64 °FFog.3 mph83%29.98 "Hg1 mi
1:00 AM66 °FFog.3 mph83%29.98 "Hg1 mi
Weather by CustomWeather, © 2015

See weather overviewHow to use our weather pages